Location: Ahausen
(50.4985°N, 8.2722°E)
Time: 23:35:39
(UTC+00:00)

CUBEBUG 2 - Visible Passes

Search period start: 27 June 2022 00:00
Search period end: 07 July 2022 00:00
Orbit: 582 x 695 km, 97.7° (Epoch: 27 June)

Date Brightness Start Highest point End Pass type
(mag) Time Alt. Az. Time Alt. Az. Time Alt. Az.
27 Jun ? 02:19:24 10° NNE 02:23:30 55° E 02:27:37 10° S visible
28 Jun ? 01:08:09 10° ENE 01:09:25 11° E 01:10:42 10° ESE visible
29 Jun ? 01:29:45 10° NE 01:32:43 19° E 01:35:42 10° SE visible
30 Jun ? 01:52:13 10° NNE 01:55:55 30° E 01:59:41 10° SSE visible
01 Jul ? 02:14:58 10° NNE 02:19:04 51° E 02:23:12 10° S visible
02 Jul ? 01:04:16 10° ENE 01:04:57 10° E 01:05:39 10° E visible
03 Jul ? 01:25:25 10° NE 01:28:15 17° E 01:31:07 10° SE visible
04 Jul ? 01:47:48 10° NE 01:51:28 28° E 01:55:11 10° SSE visible
05 Jul ? 02:10:31 10° NNE 02:14:36 46° E 02:18:46 10° S visible
06 Jul ? 02:33:25 10° NNE 02:37:40 79° ESE 02:42:00 10° S visible
